Regional Weather Roundup
Issued by NWS

Home | Current Version | Previous Version | Text Only | Print | Product List | Glossary On
Versions: 1 2 3 4 5 6 7 8 9 10 11 12 13 14 15 16 17 18 19 20 21 22 23 24 25 26 27 28 29 30 31 32 33 34 35 36 37 38 39 40 41 42 43 44 45 46 47 48 49 50
000
ASUS45 KPSR 180910
RWRAZ

ARIZONA REGIONAL HOURLY WEATHER ROUNDUP
NATIONAL WEATHER SERVICE PHOENIX AZ
200 AM MST SAT APR 18 2015

NOTE: FAIR INDICATES FEW OR NO CLOUDS BELOW 12,000 FEET WITH NO
SIGNIFICANT WEATHER AND/OR OBSTRUCTIONS TO VISIBILITY.

AZZ001>003-036-181000-
NORTHWEST ARIZONA

CITY           SKY/WX    TMP DP  RH WIND       PRES   REMARKS
BULLHEAD CITY  CLEAR     64  19  17 SE5       29.92S
KINGMAN        CLEAR     47  20  34 E5        30.01F
$$

AZZ004>008-015-016-018-181000-
NORTH CENTRAL ARIZONA

CITY           SKY/WX    TMP DP  RH WIND       PRES   REMARKS
GRAND CANYON   CLEAR     24  21  88 CALM      30.10F
WILLIAMS       CLEAR     30  23  74 S5        30.17S WCI  25
PRESCOTT       CLEAR     41  22  46 S6        30.07F
FLAGSTAFF      PTCLDY    29  24  82 SW5       30.10F WCI  24
PAYSON         CLEAR     45  23  42 CALM      30.08F
PAGE           PTCLDY    51  35  54 CALM      29.99F
$$

AZZ009>014-017-181000-
NORTHEAST ARIZONA

CITY           SKY/WX    TMP DP  RH WIND       PRES   REMARKS
WINSLOW        CLEAR     41  26  55 W6        30.02F
SAINT JOHNS    CLEAR     41  21  44 SW14      30.02F
WINDOW ROCK    CLOUDY    36  26  67 CALM      30.00F
SHOW LOW       CLEAR     36  16  44 S10       30.08F WCI  28
$$

AZZ023-181000-
GREATER PHOENIX AREA

CITY           SKY/WX    TMP DP  RH WIND       PRES   REMARKS
PHOENIX        CLEAR     66  22  18 E6        29.92F
BUCKEYE          N/A     55  21  26 W7        29.94S
LUKE AFB       CLEAR     62  28  27 W3        29.92F
DEER VALLEY    CLEAR     63  20  19 E6        29.93F
SCOTTSDALE     CLEAR     64  20  18 SE3       29.95F
MESA-GATEWAY   CLEAR     57  21  24 SE9       29.96F
$$

AZZ027-028-181000-
SOUTHWEST MARICOPA COUNTY AND PINAL COUNTY

CITY           SKY/WX    TMP DP  RH WIND       PRES   REMARKS
CASA GRANDE    CLEAR     52  16  24 CALM      29.94F
GILA BEND      FAIR      61  16  17 S8        29.93F
$$

AZZ503-504-507>509-181000-
SOUTHEAST ARIZONA

CITY           SKY/WX    TMP DP  RH WIND       PRES   REMARKS
TUCSON         CLEAR     52  20  28 SE8       30.03F
DAVIS-MONTHAN  CLEAR     49  17  28 SE10      30.01F
NOGALES        CLEAR     42  20  41 E6        30.06F
SIERRA VISTA   CLEAR     49  16  27 W9        30.09S
DOUGLAS        CLEAR     39  19  44 N6        30.06F WCI  35
SAFFORD        PTCLDY    52  15  23 N9        29.99F
$$

AZZ020-021-025-026-031-181000-
SOUTHWEST ARIZONA

CITY           SKY/WX    TMP DP  RH WIND       PRES   REMARKS
YUMA           CLEAR     65  35  33 S5        29.94F
$$

CAZ031-033-041-043-047-048-061-181000-
SOUTHERN CALIFORNIA

CITY           SKY/WX    TMP DP  RH WIND       PRES   REMARKS
DOWNTOWN L.A.  CLEAR     63  42  46 E3        30.01F
L.A. AIRPORT   CLEAR     58  49  72 SE3       30.02F
SAN DIEGO      PTCLDY    63  44  50 CALM      30.04F
BURBANK        CLEAR     61  28  28 CALM      30.02F
ONTARIO        CLEAR     61  30  31 CALM      30.03F
RIVERSIDE      CLEAR     59  30  33 CALM      30.03F
PALM SPRINGS   CLEAR     69  27  20 N6        29.96F
EL CENTRO NAS  CLEAR     60  26  27 W10       29.92F
IMPERIAL       CLEAR     60  33  36 W8        29.92F
BLYTHE         CLEAR     66  25  21 S6        29.92F
NEEDLES        CLEAR     66  12  12 CALM      29.91F
$$

NVZ020-UTZ003-181000-
SOUTHERN NEVADA-UTAH

CITY           SKY/WX    TMP DP  RH WIND       PRES   REMARKS
LAS VEGAS      CLEAR     64  18  17 S8        29.92S
SALT LAKE CITY CLEAR     46  37  71 CALM      30.02S
$$

NMZ009-TXZ055-181000-
NEW MEXICO-WEST TEXAS

CITY           SKY/WX    TMP DP  RH WIND       PRES   REMARKS
ALBUQUERQUE    PTCLDY    42  29  59 CALM      30.01F
EL PASO        PTCLDY    52  13  21 CALM      30.00S
$$


........................KEY........................
SKY/WX - SKY CONDITION/WEATHER
TMP    - TEMPERATURE IN FAHRENHEIT
DP     - DEW POINT IN FAHRENHEIT
RH     - RELATIVE HUMIDITY IN PERCENT
WIND   - DIRECTION AND SPEED IN MILES PER HOUR (MPH)
VRB    - VARIABLE WIND DIRECTION
PRES   - MEAN SEA LEVEL PRESSURE IN INCHES OF MERCURY
         F - FALLING PRESSURE   R - RISING PRESSURE
         S - STEADY PRESSURE
VSB    - VISIBILITY IN MILES
HX     - HEAT INDEX IN FAHRENHEIT
WCI    - WIND CHILL INDEX IN FAHRENHEIT
TC     - TEMPERATURE IN CELSIUS WHICH IS ALSO KNOWN AS
         TEMPERATURE IN CENTIGRADE
AFB    - AIR FORCE BASE
         LUKE AFB IS LUKE AIR FORCE BASE
         DAVIS-MONTHAN IS DAVIS-MONTHAN AIR FORCE BASE
NAS    - NAVAL AIR STATION
         EL CENTRO NAS IS EL CENTRO NAVAL AIR STATION
N/A    - NOT AVAILABLE



USA.gov is the U.S. government's official web portal to all federal, state and local government web resources and services.